Waarnemingen

Advertentie
Mijn weer
Salon, Frankrijk (7648): temperatuur & dauwpunt: 20.09.2017 14:00:00 - 26.09.2017 14:00:00 (CEST)Salon, Frankrijk (7648): temperatuur 5cm: 20.09.2017 14:00:00 - 26.09.2017 14:00:00 (CEST)Salon, Frankrijk (7648): windsnelheid & windstoten: 20.09.2017 14:00:00 - 26.09.2017 14:00:00 (CEST)Salon, Frankrijk (7648): windrichting: 20.09.2017 14:00:00 - 26.09.2017 14:00:00 (CEST)Salon, Frankrijk (7648): luchtdruk: 20.09.2017 14:00:00 - 26.09.2017 14:00:00 (CEST)Salon, Frankrijk (7648): zicht: 20.09.2017 14:00:00 - 26.09.2017 14:00:00 (CEST)Salon, Frankrijk (7648): neerslag: 20.09.2017 14:00:00 - 26.09.2017 14:00:00 (CEST)
Datum & Tijd tt [°C] td [°C] tt 5cm [°C] ff [km/u] ff [kn] fx [km/u] fx [kn] dd ppp [hPa] vv [km] rr [mm]
26.09.2017 14:00:00 23,8 13,3 27,3 9 5 20 11 W 1019,5 33 0,0
26.09.2017 13:00:00 24,6 13,5 30,1 5 3 14 8 NO 1019,8 20 0,0
26.09.2017 12:00:00 22,3 13,9 23,8 5 3 13 7 WZW 1020,1 38 0,0
26.09.2017 11:00:00 21,0 14,6 23,9 5 3 10 5 ONO 1020,3 19 0,0
26.09.2017 10:00:00 16,8 15,1 14,4 3 2 7 4 NW 1020,5 10 0,0
26.09.2017 09:00:00 13,3 13,0 11,1 3 1 4 2 N 1020,4 4,6 0,0
26.09.2017 08:00:00 11,7 11,2 9,4 0 0 4 2 N 1020,1 2,0 0,0
26.09.2017 07:00:00 12,0 11,7 9,2 3 2 7 4 ONO 1019,7 4,1 0,0
26.09.2017 06:00:00 11,7 11,2 9,3 6 4 8 5 N 1019,5 0,6 0,0
26.09.2017 05:00:00 12,7 12,2 10,0 4 2 8 5 ZO 1019,2 0,2 0,0
26.09.2017 04:00:00 13,3 12,2 10,9 4 2 8 4 N 1019,1 0,7 0,0
26.09.2017 03:00:00 14,1 13,3 11,9 5 3 8 4 N 1019,3 0,9 0,0
26.09.2017 02:00:00 15,5 14,4 14,1 0 0 6 3 N 1019,2 3,0 0,0
26.09.2017 01:00:00 16,1 15,0 15,4 0 0 9 5 N 1019,3 5 0,2
26.09.2017 00:00:00 15,9 14,9 14,6 7 4 10 5 NNO 1019,0 6 0,0
25.09.2017 23:00:00 15,3 14,2 13,8 5 3 8 5 NNO 1019,0 7 0,0
25.09.2017 22:00:00 15,7 14,4 13,5 0 0 9 5 N 1019,4 7 0,0
25.09.2017 21:00:00 16,2 14,4 14,0 3 2 11 6 NO 1019,2 8 0,0
25.09.2017 20:00:00 17,9 15,2 16,6 4 2 10 6 ZZO 1018,5 12 0,0
25.09.2017 19:00:00 19,4 15,7 19,3 5 3 12 6 ZZW 1018,0 14 0,0
25.09.2017 18:00:00 19,6 15,5 20,1 7 4 24 13 ZZW 1017,8 15 0,0
25.09.2017 17:00:00 20,0 15,4 21,1 17 9 24 13 ZW 1018,0 17 0,0
25.09.2017 16:00:00 22,0 15,1 23,0 14 8 22 12 ZW 1017,5 17 0,0
25.09.2017 15:00:00 22,4 15,0 22,6 5 3 11 6 Z 1017,4 19 0,0
25.09.2017 14:00:00 22,1 14,0 24,2 6 3 14 8 WNW 1017,8 20 0,0
25.09.2017 13:00:00 22,3 14,7 24,1 5 3 24 13 NNW 1018,4 19 0,0
25.09.2017 12:00:00 21,2 13,9 23,9 13 7 20 11 W 1018,9 20 0,0
25.09.2017 11:00:00 21,9 13,5 21,2 0 0 6 3 N 1018,6 19 0,0
25.09.2017 10:00:00 17,9 13,2 17,6 0 0 5 3 N 1018,8 18 0,0
25.09.2017 09:00:00 15,3 12,6 11,4 0 0 6 4 N 1018,3 20 0,0
25.09.2017 08:00:00 12,6 11,5 9,3 2 1 8 4 OZO 1018,1 15 0,0
25.09.2017 07:00:00 12,8 11,4 8,6 4 2 12 6 NO 1017,4 18 0,0
25.09.2017 06:00:00 12,7 11,1 9,3 2 1 10 5 ONO 1017,5 15 0,0
25.09.2017 05:00:00 12,5 11,2 9,6 2 1 11 6 ZZO 1017,4 18 0,0
25.09.2017 04:00:00 12,3 11,4 9,4 4 2 8 5 ONO 1017,5 12 0,0
25.09.2017 03:00:00 12,8 11,5 10,7 5 3 14 8 NO 1017,9 13 0,0
25.09.2017 02:00:00 13,4 12,5 11,2 10 5 13 7 NO 1018,0 16 0,0
25.09.2017 01:00:00 13,5 12,4 11,8 4 2 10 5 NO 1018,1 15 0,0
25.09.2017 00:00:00 14,5 12,7 12,2 4 2 8 4 NNO 1018,3 19 0,0
24.09.2017 23:00:00 16,3 13,6 13,4 3 2 6 3 Z 1018,3 22 0,0
24.09.2017 22:00:00 18,3 14,4 15,4 3 1 6 3 W 1018,1 30 0,0
24.09.2017 21:00:00 19,8 13,5 17,8 2 1 13 7 W 1017,4 33 0,0
24.09.2017 20:00:00 21,6 13,5 20,6 7 4 18 10 W 1017,0 44 0,0
24.09.2017 19:00:00 24,4 13,0 24,2 11 6 25 13 W 1016,6 39 0,0
24.09.2017 18:00:00 27,2 14,2 30,4 13 7 23 12 W 1016,1 45 0,0
24.09.2017 17:00:00 28,1 12,0 32,3 17 9 31 17 WNW 1016,4 46 0,0
24.09.2017 16:00:00 27,1 13,1 32,5 13 7 27 15 WNW 1016,8 20 0,0
24.09.2017 15:00:00 26,5 14,3 31,3 11 6 23 12 WNW 1017,2 32 0,0
24.09.2017 14:00:00 25,2 14,6 30,1 10 5 24 13 WNW 1017,7 31 0,0
24.09.2017 13:00:00 22,8 15,1 26,3 7 4 21 11 WNW 1018,5 19 0,0
24.09.2017 12:00:00 20,1 15,3 21,1 10 5 18 10 WNW 1019,1 19 0,0
24.09.2017 11:00:00 17,8 14,7 20,2 6 3 10 6 W 1019,5 13 0,0
24.09.2017 10:00:00 16,0 13,8 18,6 0 0 4 2 N 1019,6 11 0,0
24.09.2017 09:00:00 13,5 12,9 10,1 0 0 5 3 N 1019,7 6 0,2
24.09.2017 08:00:00 11,3 10,8 8,9 3 1 5 3 NNO 1019,6 0,2 0,0
24.09.2017 07:00:00 10,7 10,1 8,6 5 3 6 3 NO 1019,4 2,8 0,0
24.09.2017 06:00:00 12,4 11,8 9,7 0 0 4 2 N 1019,4 1,2 0,0
24.09.2017 05:00:00 12,5 11,7 10,7 2 1 4 2 NO 1019,5 3,0 0,0
24.09.2017 04:00:00 13,5 12,7 11,0 0 0 4 2 N 1019,6 4,0 0,0
24.09.2017 03:00:00 14,4 13,3 12,0 3 2 6 4 NNO 1019,8 6 0,0
24.09.2017 02:00:00 15,8 14,3 14,0 3 1 4 2 Z 1019,9 0,6 0,0
24.09.2017 01:00:00 17,1 15,1 15,4 0 0 6 3 N 1020,2 8 0,0
24.09.2017 00:00:00 17,3 15,5 16,7 3 2 6 4 NW 1020,5 10 0,0
23.09.2017 23:00:00 17,0 15,3 15,9 0 0 4 2 N 1020,6 15 0,0
23.09.2017 22:00:00 16,1 14,6 13,4 0 0 0 0 N 1020,6 21 0,0
23.09.2017 21:00:00 17,6 15,2 15,9 0 0 9 5 N 1020,4 20 0,0
23.09.2017 20:00:00 18,8 15,5 18,0 8 4 14 8 ZZW 1019,9 38 0,0
23.09.2017 19:00:00 20,5 15,1 20,7 10 5 21 11 ZZW 1019,6 36 0,0
23.09.2017 18:00:00 22,2 15,1 25,7 13 7 24 13 ZZW 1019,4 57 0,0
23.09.2017 17:00:00 23,3 14,8 27,9 16 9 25 14 ZW 1019,4 20 0,0
23.09.2017 16:00:00 23,7 13,8 26,4 11 6 19 11 ZZW 1019,8 20 0,0
23.09.2017 15:00:00 24,0 14,4 27,9 6 3 13 7 Z 1020,2 20 0,0
23.09.2017 14:00:00 22,7 14,5 24,4 5 3 14 8 WZW 1020,9 20 0,0
23.09.2017 13:00:00 21,4 14,8 24,4 5 3 10 6 W 1021,0 19 0,0
23.09.2017 12:00:00 21,7 15,3 22,4 2 1 8 5 NNW 1021,7 18 0,0
23.09.2017 11:00:00 18,8 15,3 20,7 7 4 11 6 NW 1022,2 12 0,0
23.09.2017 10:00:00 18,3 15,0 17,9 4 2 11 6 NNO 1021,8 16 0,0
23.09.2017 09:00:00 16,1 14,8 14,5 4 2 7 4 O 1021,7 12 0,0
23.09.2017 08:00:00 14,4 13,8 12,8 3 2 6 3 ONO 1021,6 8 0,0
23.09.2017 07:00:00 14,3 13,5 12,7 3 2 5 3 NO 1021,3 3,8 0,0
23.09.2017 06:00:00 15,7 14,6 14,8 0 0 4 2 N 1021,1 9 0,0
23.09.2017 05:00:00 15,7 14,7 15,8 0 0 5 3 N 1021,1 14 0,0
23.09.2017 04:00:00 15,5 14,7 15,2 0 0 5 3 N 1021,6 10 0,0
23.09.2017 03:00:00 15,2 14,7 14,4 3 2 5 3 N 1022,2 6 0,0
23.09.2017 02:00:00 15,2 14,7 14,6 3 2 5 3 O 1022,4 1,4 0,0
23.09.2017 01:00:00 14,7 14,2 11,5 0 0 3 1 N 1022,2 0,2 0,0
23.09.2017 00:00:00 13,6 12,7 11,4 0 0 5 3 N 1022,1 9 0,0
22.09.2017 23:00:00 14,4 13,4 11,8 0 0 5 3 N 1021,7 9 0,0
22.09.2017 22:00:00 15,4 14,1 12,4 0 0 3 1 N 1021,4 12 0,0
22.09.2017 21:00:00 16,3 14,8 13,7 0 0 5 3 N 1021,1 10 0,0
22.09.2017 20:00:00 18,8 16,2 16,9 0 0 13 7 N 1020,8 25 0,0
22.09.2017 19:00:00 20,0 16,2 20,0 10 5 24 13 Z 1020,6 38 0,0
22.09.2017 18:00:00 21,7 16,6 24,4 13 7 25 14 ZZW 1020,3 41 0,0
22.09.2017 17:00:00 22,7 16,3 26,3 15 8 26 14 ZZW 1020,0 26 0,0
22.09.2017 16:00:00 23,8 14,5 26,8 16 8 26 14 ZZW 1019,7 37 0,0
22.09.2017 15:00:00 24,1 13,3 30,5 11 6 22 12 ZZW 1019,8 20 0,0
22.09.2017 14:00:00 23,8 13,6 26,3 11 6 21 12 WZW 1020,1 35 0,0
22.09.2017 13:00:00 23,2 14,2 28,2 5 3 18 10 WNW 1020,5 59 0,0
22.09.2017 12:00:00 21,9 14,5 23,3 4 2 14 8 NNW 1020,8 23 0,0
22.09.2017 11:00:00 19,4 12,4 24,2 7 4 11 6 NW 1021,0 15 0,0
22.09.2017 10:00:00 18,0 10,6 16,4 7 4 13 7 NO 1020,6 34 0,0
22.09.2017 09:00:00 14,4 10,6 12,3 5 3 10 5 NO 1020,5 54 0,0
22.09.2017 08:00:00 11,9 10,8 7,9 6 3 9 5 N 1020,3 24 0,0
22.09.2017 07:00:00 10,7 9,6 8,0 3 2 6 3 N 1019,9 14 0,0
22.09.2017 06:00:00 11,5 10,4 9,4 0 0 9 5 N 1019,7 20 0,0
22.09.2017 05:00:00 10,8 9,9 8,8 8 4 10 5 N 1019,8 19 0,0
22.09.2017 04:00:00 11,1 10,0 8,7 3 2 7 4 NNO 1019,8 21 0,0
22.09.2017 03:00:00 10,9 8,8 8,7 2 1 4 2 ONO 1020,2 16 0,0
22.09.2017 02:00:00 12,3 10,9 9,9 3 1 7 4 N 1020,5 31 0,0
22.09.2017 01:00:00 12,1 10,3 9,5 3 1 6 3 NO 1020,2 35 0,0
22.09.2017 00:00:00 12,8 10,9 10,3 4 2 6 4 NNO 1019,9 41 0,0
21.09.2017 23:00:00 13,6 10,8 11,1 0 0 6 3 N 1019,8 37 0,0
21.09.2017 22:00:00 13,8 11,0 11,4 4 2 6 3 ONO 1019,7 40 0,0
21.09.2017 21:00:00 16,0 12,0 13,1 0 0 7 4 N 1019,3 60 0,0
21.09.2017 20:00:00 18,0 12,0 15,5 5 3 14 7 ZZO 1018,8 60 0,0
21.09.2017 19:00:00 20,0 11,5 19,9 9 5 19 10 Z 1018,2 58 0,0
21.09.2017 18:00:00 21,7 9,6 26,3 11 6 21 11 ZZW 1018,0 60 0,0
21.09.2017 17:00:00 22,3 7,3 27,9 14 7 22 12 ZW 1018,0 60 0,0
21.09.2017 16:00:00 22,9 6,2 28,2 14 8 24 13 Z 1018,1 46 0,0
21.09.2017 15:00:00 22,2 6,4 28,7 13 7 25 13 Z 1018,3 60 0,0
21.09.2017 14:00:00 22,0 7,0 28,0 11 6 25 13 Z 1018,5 60 0,0
21.09.2017 13:00:00 21,6 5,9 27,3 14 8 26 14 Z 1018,7 60 0,0
21.09.2017 12:00:00 21,4 5,7 28,8 9 5 20 11 ZZO 1018,8 60 0,0
21.09.2017 11:00:00 20,6 5,8 25,5 8 4 16 9 ZO 1019,0 60 0,0
21.09.2017 10:00:00 18,4 5,9 18,8 5 3 11 6 O 1018,7 60 0,0
21.09.2017 09:00:00 12,5 6,1 7,7 2 1 10 5 W 1018,7 59 0,0
21.09.2017 08:00:00 6,3 4,3 3,4 6 3 8 4 N 1018,8 59 0,0
21.09.2017 07:00:00 5,3 3,8 3,1 5 3 8 4 NO 1018,6 60 0,0
21.09.2017 06:00:00 6,0 4,0 3,1 0 0 4 2 N 1018,6 60 0,0
21.09.2017 05:00:00 6,7 4,0 3,5 0 0 7 4 N 1018,3 60 0,0
21.09.2017 04:00:00 7,8 4,4 4,6 0 0 7 4 N 1018,4 60 0,0
21.09.2017 03:00:00 7,8 4,6 6,0 3 2 12 6 NW 1018,7 60 0,0
21.09.2017 02:00:00 9,2 5,0 7,0 0 0 16 9 N 1018,6 60 0,0
21.09.2017 01:00:00 14,1 6,9 11,2 4 2 16 9 W 1018,4 60 0,0
21.09.2017 00:00:00 15,5 7,0 13,9 16 8 42 23 NNW 1018,0 60 0,0
20.09.2017 23:00:00 16,2 6,6 14,4 27 15 37 20 NW 1017,8 60 0,0
20.09.2017 22:00:00 16,9 6,1 16,0 15 8 32 17 WNW 1017,6 60 0,0
20.09.2017 21:00:00 17,4 5,7 16,6 18 10 35 19 NW 1017,7 60 0,0
20.09.2017 20:00:00 18,3 5,8 17,5 21 12 37 20 NW 1017,5 60 0,0
20.09.2017 19:00:00 19,8 5,8 19,5 21 12 42 23 NW 1017,1 60 0,0
20.09.2017 18:00:00 21,7 6,0 24,8 23 13 41 22 NNW 1016,8 44 0,0
20.09.2017 17:00:00 22,4 5,8 25,8 29 15 41 22 NNW 1016,9 38 0,0
20.09.2017 16:00:00 22,5 5,4 27,0 24 13 44 24 NW 1017,1 40 0,0
20.09.2017 15:00:00 22,9 6,2 26,9 22 12 37 20 NNW 1017,1 42 0,0
20.09.2017 14:00:00 22,2 6,8 25,3 24 13 41 22 NNW 1017,6 41 0,0

tt = temperatuur
td = dauwpunt
tt 5cm = temperatuur 5cm
ff = windsnelheid
fx = windstoten
dd = windrichting
ppp = luchtdruk
vv = zicht
rr = neerslag

Weerstations in de omgeving